Location: Amsterdam
(30.7274°N, 84.4357°W)
Time: 00:04:15
(UTC+00:00)

Tiros 1 - Pass Details

Date: 20 February 2026
Orbit: 618 x 649 km, 48.4° (Epoch: 10 March)

Event Time Altitude Azimuth Distance (km) Brightness Sun altitude
Rises 20:43:22 0° 300° (WNW) 2,883 10.7 31.5°
Reaches altitude 10° 20:45:52 10° 290° (WNW) 1,974 10.2 31.1°
Maximum altitude 20:49:51 31° 228° (SW) 1,084 11.7 30.4°
Drops below altitude 10° 20:53:51 10° 166° (SSE) 1,971 10.0 29.8°
Sets 20:56:20 0° 156° (SSE) 2,877 10.6 29.3°
